Atmospheric History
12/06/2017 18:36  to  12/7/2017 18:36
Change End Date:
To complete the export process:
1) Select all of the data below
2) Copy the data to the clipboard
3) Open a word processor such as Notepad
4) Paste the data into the word processor
5) Save the file

Date/Time (MST), AirTemp, RH, Dewpoint ,AvgWindSpeed, GustWindSpeed, WindDirection, PrecipType, PrecipIntensity, PrecipAccumulation, PrecipRate
12/07/2017 18:34, 28, 78, 22 ,1, 4, NW, None, None, ,  
12/07/2017 18:31, 28, 78, 22 ,2, 4, NW, None, None, ,  
12/07/2017 18:24, 28, 77, 22 ,2, 4, NW, None, None, ,  
12/07/2017 18:15, 28, 77, 22 ,2, 4, NW, None, None, ,  
12/07/2017 18:14, 28, 78, 22 ,3, 4, NW, None, None, ,  
12/07/2017 18:04, 28, 77, 22 ,3, 4, NW, None, None, ,  
12/07/2017 18:01, 28, 77, 22 ,2, 4, NW, None, None, ,  
12/07/2017 17:54, 28, 77, 22 ,2, 6, NW, None, None, ,  
12/07/2017 17:45, 28, 77, 22 ,3, 6, NW, None, None, ,  
12/07/2017 17:44, 28, 77, 22 ,3, 5, NW, None, None, ,  
12/07/2017 17:34, 28, 77, 22 ,3, 4, NW, None, None, ,  
12/07/2017 17:31, 28, 77, 22 ,3, 4, NW, None, None, ,  
12/07/2017 17:24, 29, 76, 22 ,3, 4, NW, None, None, ,  
12/07/2017 17:16, 29, 78, 23 ,0, 3, N, None, None, ,  
12/07/2017 17:14, 29, 78, 23 ,1, 3, N, None, None, ,  
12/07/2017 17:04, 29, 77, 22 ,2, 3, NW, None, None, ,  
12/07/2017 17:00, 29, 77, 22 ,1, 4, NW, None, None, ,  
12/07/2017 16:54, 29, 76, 22 ,2, 3, NW, None, None, ,  
12/07/2017 16:45, 29, 76, 22 ,2, 4, N, None, None, ,  
12/07/2017 16:44, 29, 76, 22 ,2, 4, NW, None, None, ,  
12/07/2017 16:34, 29, 75, 22 ,2, 6, NW, None, None, ,  
12/07/2017 16:30, 29, 75, 22 ,2, 6, NW, None, None, ,  
12/07/2017 16:24, 29, 75, 22 ,4, 5, NW, None, None, ,  
12/07/2017 16:16, 29, 74, 22 ,4, 5, NW, None, None, ,  
12/07/2017 16:14, 29, 74, 22 ,3, 5, NW, None, None, ,  
12/07/2017 16:03, 29, 74, 22 ,2, 4, NW, None, None, ,  
12/07/2017 16:00, 29, 74, 22 ,3, 4, NW, None, None, ,  
12/07/2017 15:53, 30, 73, 22 ,2, 4, NW, None, None, ,  
12/07/2017 15:45, 30, 72, 22 ,1, 3, NW, None, None, ,  
12/07/2017 15:43, 30, 72, 22 ,0, 3, N, None, None, ,  
12/07/2017 15:33, 29, 72, 22 ,1, 2, NW, None, None, ,  
12/07/2017 15:30, 29, 72, 22 ,2, 2, N, None, None, ,  
12/07/2017 15:23, 29, 71, 22 ,1, 1, NW, None, None, ,  
12/07/2017 15:17, 29, 72, 22 ,0, 1, N, None, None, ,  
12/07/2017 15:13, 29, 72, 22 ,0, 1, N, None, None, ,  
12/07/2017 15:03, 30, 71, 22 ,1, 1, E, None, None, ,  
12/07/2017 15:01, 30, 72, 22 ,0, 0, NE, None, None, ,  
12/07/2017 14:53, 29, 72, 21 ,0, 3, NW, None, None, ,  
12/07/2017 14:46, 29, 72, 21 ,2, 4, N, None, None, ,  
12/07/2017 14:43, 29, 72, 22 ,2, 4, NW, None, None, ,  
12/07/2017 14:33, 29, 73, 22 ,1, 4, NW, None, None, ,  
12/07/2017 14:31, 29, 73, 22 ,1, 4, W, None, None, ,  
12/07/2017 14:23, 29, 73, 22 ,4, 4, NW, None, None, ,  
12/07/2017 14:16, 29, 73, 22 ,1, 3, NW, None, None, ,  
12/07/2017 14:13, 29, 73, 22 ,2, 3, NW, None, None, ,  
12/07/2017 14:03, 29, 73, 22 ,0, 4, W, None, None, ,  
12/07/2017 14:01, 29, 73, 22 ,3, 4, NW, None, None, ,  
12/07/2017 13:53, 29, 73, 22 ,1, 2, S, None, None, ,  
12/07/2017 13:46, 29, 73, 22 ,0, 1, SW, None, None, ,  
12/07/2017 13:43, 29, 73, 22 ,0, 1, SE, None, None, ,  
12/07/2017 13:33, 29, 73, 22 ,0, 1, SE, None, None, ,  
12/07/2017 13:31, 29, 73, 22 ,0, 1, SE, None, None, ,  
12/07/2017 13:23, 29, 74, 22 ,1, 1, S, None, None, ,  
12/07/2017 13:16, 29, 74, 22 ,0, 1, SW, None, None, ,  
12/07/2017 13:12, 29, 73, 22 ,0, 1, W, None, None, ,  
12/07/2017 13:02, 29, 73, 21 ,0, 1, NW, None, None, ,  
12/07/2017 13:01, 29, 73, 22 ,0, 1, NW, None, None, ,  
12/07/2017 12:52, 29, 73, 21 ,0, 4, W, None, None, ,  
12/07/2017 12:46, 29, 74, 22 ,2, 6, NW, None, None, ,  
12/07/2017 12:42, 29, 73, 21 ,2, 6, NW, None, None, ,  
12/07/2017 12:32, 29, 73, 21 ,0, 2, SW, None, None, ,  
12/07/2017 12:31, 29, 73, 21 ,1, 2, SW, None, None, ,  
12/07/2017 12:22, 29, 75, 22 ,0, 1, SW, None, None, ,  
12/07/2017 12:16, 29, 75, 22 ,0, 1, W, None, None, ,  
12/07/2017 12:12, 29, 75, 22 ,0, 2, NW, None, None, ,  
12/07/2017 12:02, 29, 74, 21 ,0, 2, NW, None, None, ,  
12/07/2017 12:00, 29, 74, 21 ,1, 3, NW, None, None, ,  
12/07/2017 11:52, 28, 76, 22 ,2, 4, NW, None, None, ,  
12/07/2017 11:46, 28, 77, 22 ,3, 4, NW, None, None, ,  
12/07/2017 11:42, 28, 76, 22 ,3, 4, NW, None, None, ,  
12/07/2017 11:32, 28, 77, 22 ,1, 2, NW, None, None, ,  
12/07/2017 11:30, 28, 77, 22 ,0, 1, N, None, None, ,  
12/07/2017 11:22, 28, 77, 22 ,1, 2, SE, None, None, ,  
12/07/2017 11:15, 28, 78, 22 ,1, 3, SE, None, None, ,  
12/07/2017 11:12, 28, 79, 22 ,1, 3, SE, None, None, ,  
12/07/2017 11:02, 28, 82, 23 ,2, 3, SE, None, None, ,  
12/07/2017 11:00, 28, 81, 23 ,1, 2, SE, None, None, ,  
12/07/2017 10:52, 27, 82, 23 ,1, 1, S, None, None, ,  
12/07/2017 10:46, 27, 83, 23 ,0, 1, S, None, None, ,  
12/07/2017 10:42, 27, 82, 23 ,0, 1, SE, None, None, ,  
12/07/2017 10:32, 27, 83, 23 ,0, 1, S, None, None, ,  
12/07/2017 10:30, 27, 84, 23 ,0, 1, S, None, None, ,  
12/07/2017 10:22, 27, 85, 23 ,1, 1, S, None, None, ,  
12/07/2017 10:16, 27, 84, 23 ,0, 1, SW, None, None, ,  
12/07/2017 10:12, 27, 83, 22 ,0, 1, SW, None, None, ,  
12/07/2017 10:02, 26, 85, 22 ,0, 1, E, None, None, ,  
12/07/2017 10:00, 26, 84, 22 ,0, 1, E, None, None, ,  
12/07/2017 09:52, 26, 85, 22 ,0, 1, S, None, None, ,  
12/07/2017 09:45, 26, 85, 22 ,0, 0, SW, None, None, ,  
12/07/2017 09:42, 26, 85, 22 ,0, 0, SW, None, None, ,  
12/07/2017 09:32, 26, 85, 22 ,0, 0, S, None, None, ,  
12/07/2017 09:30, 26, 85, 22 ,0, 0, S, None, None, ,  
12/07/2017 09:21, 26, 86, 22 ,0, 1, S, None, None, ,  
12/07/2017 09:15, 26, 86, 22 ,0, 1, S, None, None, ,  
12/07/2017 09:11, 26, 86, 22 ,0, 1, SE, None, None, ,  
12/07/2017 09:01, 26, 86, 22 ,1, 1, SE, None, None, ,  
12/07/2017 09:01, 26, 86, 22 ,1, 1, SE, None, None, ,  
12/07/2017 08:51, 26, 86, 22 ,0, 0, SW, None, None, ,  
12/07/2017 08:41, 26, 86, 22 ,0, 1, N, None, None, ,  
12/07/2017 08:31, 26, 86, 22 ,0, 1, NW, None, None, ,  
12/07/2017 08:31, 26, 87, 22 ,1, 1, NW, None, None, ,  
12/07/2017 08:21, 26, 87, 22 ,0, 1, W, None, None, ,  
12/07/2017 08:16, 26, 86, 22 ,0, 1, SE, None, None, ,  
12/07/2017 08:11, 25, 86, 22 ,0, 2, SE, None, None, ,  
12/07/2017 08:01, 25, 86, 22 ,1, 1, SE, None, None, ,  
12/07/2017 08:01, 25, 86, 22 ,1, 1, SE, None, None, ,  
12/07/2017 07:51, 25, 86, 22 ,0, 1, SE, None, None, ,  
12/07/2017 07:46, 25, 87, 22 ,1, 1, SW, None, None, ,  
12/07/2017 07:41, 25, 88, 22 ,1, 1, S, None, None, ,  
12/07/2017 07:31, 25, 87, 22 ,1, 3, S, None, None, ,  
12/07/2017 07:31, 25, 87, 22 ,1, 3, S, None, None, ,  
12/07/2017 07:21, 25, 88, 22 ,2, 2, SE, None, None, ,  
12/07/2017 07:16, 25, 88, 22 ,2, 2, SE, None, None, ,  
12/07/2017 07:11, 25, 88, 22 ,1, 2, SE, None, None, ,  
12/07/2017 07:01, 25, 86, 22 ,1, 1, SE, None, None, ,  
12/07/2017 07:01, 25, 86, 22 ,1, 1, SE, None, None, ,  
12/07/2017 06:51, 25, 87, 22 ,1, 2, S, None, None, ,  
12/07/2017 06:46, 25, 87, 22 ,1, 2, S, None, None, ,  
12/07/2017 06:41, 25, 87, 22 ,1, 2, S, None, None, ,  
12/07/2017 06:31, 25, 88, 22 ,1, 2, S, None, None, ,  
12/07/2017 06:31, 25, 88, 22 ,1, 2, S, None, None, ,  
12/07/2017 06:21, 25, 87, 22 ,1, 2, S, None, None, ,  
12/07/2017 06:17, 25, 86, 22 ,2, 2, SE, None, None, ,  
12/07/2017 06:11, 25, 86, 22 ,1, 1, S, None, None, ,  
12/07/2017 06:01, 25, 86, 22 ,1, 1, S, None, None, ,  
12/07/2017 06:00, 25, 86, 22 ,1, 1, S, None, None, ,  
12/07/2017 05:51, 25, 87, 22 ,1, 1, SE, None, None, ,  
12/07/2017 05:46, 25, 87, 22 ,1, 1, S, None, None, ,  
12/07/2017 05:41, 25, 85, 22 ,0, 2, SE, None, None, ,  
12/07/2017 05:31, 25, 86, 22 ,1, 2, S, None, None, ,  
12/07/2017 05:31, 25, 86, 22 ,1, 2, S, None, None, ,  
12/07/2017 05:20, 25, 86, 22 ,2, 2, S, None, None, ,  
12/07/2017 05:15, 25, 86, 22 ,2, 2, SE, None, None, ,  
12/07/2017 05:10, 25, 87, 22 ,1, 1, S, None, None, ,  
12/07/2017 05:01, 25, 85, 21 ,1, 2, SE, None, None, ,  
12/07/2017 05:00, 25, 85, 21 ,0, 2, SE, None, None, ,  
12/07/2017 04:50, 25, 85, 21 ,2, 2, SE, None, None, ,  
12/07/2017 04:46, 25, 84, 21 ,2, 2, SE, None, None, ,  
12/07/2017 04:40, 25, 85, 21 ,1, 1, SE, None, None, ,  
12/07/2017 04:30, 25, 84, 21 ,1, 2, S, None, None, ,  
12/07/2017 04:20, 25, 84, 21 ,1, 2, SE, None, None, ,  
12/07/2017 04:15, 25, 84, 21 ,1, 2, SE, None, None, ,  
12/07/2017 04:10, 25, 85, 21 ,1, 2, S, None, None, ,  
12/07/2017 04:00, 25, 83, 21 ,1, 1, SE, None, None, ,  
12/07/2017 04:00, 25, 83, 21 ,1, 1, SE, None, None, ,  
12/07/2017 03:50, 25, 83, 21 ,0, 1, E, None, None, ,  
12/07/2017 03:45, 25, 83, 21 ,1, 1, SE, None, None, ,  
12/07/2017 03:40, 25, 84, 21 ,0, 2, SE, None, None, ,  
12/07/2017 03:31, 25, 84, 21 ,1, 2, E, None, None, ,  
12/07/2017 03:30, 25, 84, 21 ,1, 2, SE, None, None, ,  
12/07/2017 03:20, 25, 84, 21 ,2, 3, SE, None, None, ,  
12/07/2017 03:15, 25, 84, 21 ,2, 3, SE, None, None, ,  
12/07/2017 03:10, 25, 84, 21 ,2, 3, SE, None, None, ,  
12/07/2017 03:00, 25, 83, 21 ,2, 2, SE, None, None, ,  
12/07/2017 03:00, 25, 84, 21 ,2, 2, SE, None, None, ,  
12/07/2017 02:50, 25, 83, 21 ,1, 2, SE, None, None, ,  
12/07/2017 02:45, 25, 84, 21 ,1, 2, SE, None, None, ,  
12/07/2017 02:40, 25, 84, 21 ,1, 1, SE, None, None, ,  
12/07/2017 02:31, 25, 84, 21 ,0, 2, E, None, None, ,  
12/07/2017 02:30, 25, 84, 21 ,1, 2, E, None, None, ,  
12/07/2017 02:20, 25, 84, 21 ,1, 2, SE, None, None, ,  
12/07/2017 02:16, 25, 84, 21 ,2, 2, SE, None, None, ,  
12/07/2017 02:10, 25, 85, 21 ,1, 2, SE, None, None, ,  
12/07/2017 02:01, 25, 85, 21 ,2, 3, SE, None, None, ,  
12/07/2017 02:00, 25, 85, 21 ,2, 3, SE, None, None, ,  
12/07/2017 01:50, 25, 84, 21 ,2, 3, SE, None, None, ,  
12/07/2017 01:45, 25, 83, 21 ,2, 3, SE, None, None, ,  
12/07/2017 01:40, 25, 84, 21 ,2, 2, SE, None, None, ,  
12/07/2017 01:31, 25, 84, 21 ,1, 2, SE, None, None, ,  
12/07/2017 01:30, 25, 84, 21 ,2, 2, SE, None, None, ,  
12/07/2017 01:20, 25, 85, 21 ,1, 3, SE, None, None, ,  
12/07/2017 01:15, 25, 84, 21 ,2, 2, SE, None, None, ,  
12/07/2017 01:10, 25, 85, 22 ,2, 2, SE, None, None, ,  
12/07/2017 01:00, 25, 86, 22 ,2, 2, SE, None, None, ,  
12/07/2017 01:00, 25, 86, 22 ,2, 2, SE, None, None, ,  
12/07/2017 00:50, 25, 86, 22 ,1, 2, SE, None, None, ,  
12/07/2017 00:45, 25, 86, 22 ,1, 3, SE, None, None, ,  
12/07/2017 00:39, 25, 86, 22 ,2, 4, SE, None, None, ,  
12/07/2017 00:30, 25, 86, 22 ,4, 5, SE, None, None, ,  
12/07/2017 00:29, 25, 86, 22 ,3, 5, SE, None, None, ,  
12/07/2017 00:19, 25, 86, 22 ,3, 4, SE, None, None, ,  
12/07/2017 00:15, 25, 86, 22 ,3, 4, SE, None, None, ,  
12/07/2017 00:09, 25, 86, 22 ,2, 4, SE, None, None, ,  
12/07/2017 00:01, 25, 87, 22 ,3, 4, SE, None, None, ,  
12/06/2017 23:59, 25, 88, 22 ,2, 4, SE, None, None, ,  
12/06/2017 23:49, 25, 86, 22 ,3, 4, S, None, None, ,  
12/06/2017 23:45, 26, 87, 22 ,3, 3, SE, None, None, ,  
12/06/2017 23:39, 25, 87, 22 ,2, 2, SE, None, None, ,  
12/06/2017 23:30, 25, 87, 22 ,2, 2, S, None, None, ,  
12/06/2017 23:29, 26, 87, 22 ,1, 2, S, None, None, ,  
12/06/2017 23:19, 26, 87, 22 ,1, 2, SE, None, None, ,  
12/06/2017 23:16, 26, 87, 22 ,2, 2, SE, None, None, ,  
12/06/2017 23:09, 26, 87, 22 ,0, 1, S, None, None, ,  
12/06/2017 23:01, 26, 87, 22 ,0, 1, S, None, None, ,  
12/06/2017 22:59, 26, 87, 22 ,1, 2, S, None, None, ,  
12/06/2017 22:49, 26, 87, 22 ,1, 3, SE, None, None, ,  
12/06/2017 22:45, 26, 87, 22 ,2, 4, SE, None, None, ,  
12/06/2017 22:39, 26, 84, 22 ,2, 4, SE, None, None, ,  
12/06/2017 22:30, 26, 85, 22 ,2, 3, SE, None, None, ,  
12/06/2017 22:29, 26, 85, 22 ,2, 3, SE, None, None, ,  
12/06/2017 22:19, 26, 82, 22 ,2, 2, SE, None, None, ,  
12/06/2017 22:15, 26, 85, 22 ,1, 2, SE, None, None, ,  
12/06/2017 22:09, 26, 84, 22 ,1, 3, SE, None, None, ,  
12/06/2017 22:01, 26, 86, 22 ,2, 4, SE, None, None, ,  
12/06/2017 21:59, 26, 86, 22 ,2, 4, SE, None, None, ,  
12/06/2017 21:49, 26, 86, 22 ,4, 4, SE, None, None, ,  
12/06/2017 21:46, 26, 87, 23 ,4, 4, SE, None, None, ,  
12/06/2017 21:39, 26, 87, 23 ,3, 4, SE, None, None, ,  
12/06/2017 21:31, 27, 86, 23 ,2, 3, S, None, None, ,  
12/06/2017 21:29, 27, 85, 23 ,0, 1, W, None, None, ,  
12/06/2017 21:19, 26, 85, 23 ,0, 0, SE, None, None, ,  
12/06/2017 21:16, 26, 85, 22 ,0, 0, S, None, None, ,  
12/06/2017 21:09, 26, 86, 23 ,0, 0, S, None, None, ,  
12/06/2017 21:01, 26, 86, 23 ,0, 0, SE, None, None, ,  
12/06/2017 20:59, 26, 87, 23 ,0, 0, SE, None, None, ,  
12/06/2017 20:49, 26, 87, 23 ,0, 1, SE, None, None, ,  
12/06/2017 20:46, 26, 87, 23 ,0, 1, SE, None, None, ,  
12/06/2017 20:38, 26, 88, 23 ,0, 1, SW, None, None, ,  
12/06/2017 20:31, 26, 89, 23 ,1, 2, SE, None, None, ,  
12/06/2017 20:28, 25, 89, 23 ,1, 2, SE, None, None, ,  
12/06/2017 20:18, 26, 88, 22 ,1, 2, S, None, None, ,  
12/06/2017 20:15, 26, 87, 23 ,0, 1, SE, None, None, ,  
12/06/2017 20:08, 26, 88, 23 ,1, 1, SE, None, None, ,  
12/06/2017 20:00, 27, 83, 22 ,0, 0, NE, None, None, ,  
12/06/2017 19:58, 27, 83, 22 ,0, 0, NE, None, None, ,  
12/06/2017 19:48, 27, 83, 23 ,0, 1, N, None, None, ,  
12/06/2017 19:46, 27, 83, 23 ,0, 1, N, None, None, ,  
12/06/2017 19:38, 27, 83, 23 ,1, 1, NW, None, None, ,  
12/06/2017 19:28, 28, 83, 23 ,1, 1, N, None, None, ,  
12/06/2017 19:18, 28, 81, 23 ,0, 1, N, None, None, ,  
12/06/2017 19:08, 28, 80, 23 ,0, 1, N, None, None, ,  
12/06/2017 18:58, 28, 79, 23 ,0, 1, NE, None, None, ,  
12/06/2017 18:48, 29, 77, 22 ,0, 1, N, None, None, ,  
12/06/2017 18:38, 29, 79, 23 ,1, 2, NW, None, None, ,  
Change End Date:

Copyright © 1998-2015 Vaisala, Inc.
All Rights Reserved
Send comments about the data to:
SCAN Web ® is a registered trademark of Vaisala, Inc.
SCAN Web Version 6.0